Time,TemperatureF,DewpointF,PressureIn,WindDirection,WindDirectionDegrees,WindSpeedMPH,WindSpeedGustMPH,Humidity,HourlyPrecipIn,Conditions,Clouds,dailyrainin,SoftwareType,DateUTC
2013-09-13 00:01:00,65.6,62.3,29.94,NNW,334,2.0,6.0,89,0.00,,,0.00,Wunderground v.1.15,2013-09-13 04:01:00,
2013-09-13 00:04:00,65.8,61.8,29.94,North,355,4.0,6.0,87,0.00,,,0.00,Wunderground v.1.15,2013-09-13 04:04:00,
2013-09-13 00:05:00,65.8,61.5,29.94,NNW,331,5.0,6.0,86,0.00,,,0.00,Wunderground v.1.15,2013-09-13 04:05:00,
2013-09-13 00:06:00,65.7,61.4,29.94,West,265,5.0,6.0,86,0.00,,,0.00,Wunderground v.1.15,2013-09-13 04:06:00,
2013-09-13 00:07:00,65.8,61.5,29.94,WSW,237,5.0,6.0,86,0.00,,,0.00,Wunderground v.1.15,2013-09-13 04:07:00,
2013-09-13 00:08:00,65.8,61.2,29.94,WNW,282,5.0,6.0,85,0.00,,,0.00,Wunderground v.1.15,2013-09-13 04:08:00,
2013-09-13 00:12:00,65.8,62.1,29.94,South,185,4.0,6.0,88,0.00,,,0.00,Wunderground v.1.15,2013-09-13 04:12:00,
2013-09-13 00:13:00,65.8,62.1,29.94,South,185,4.0,6.0,88,0.00,,,0.00,Wunderground v.1.15,2013-09-13 04:13:00,
2013-09-13 00:15:00,65.7,62.4,29.93,South,188,3.0,6.0,89,0.00,,,0.00,Wunderground v.1.15,2013-09-13 04:15:00,
2013-09-13 00:16:00,65.6,62.3,29.93,South,188,3.0,6.0,89,0.00,,,0.00,Wunderground v.1.15,2013-09-13 04:16:00,
2013-09-13 00:20:00,65.4,62.1,29.93,South,178,3.0,3.0,89,0.00,,,0.00,Wunderground v.1.15,2013-09-13 04:20:00,
2013-09-13 00:21:00,65.4,62.1,29.93,South,182,3.0,3.0,89,0.00,,,0.00,Wunderground v.1.15,2013-09-13 04:21:00,
2013-09-13 00:22:00,65.3,62.0,29.93,South,187,2.0,3.0,89,0.00,,,0.00,Wunderground v.1.15,2013-09-13 04:22:00,
2013-09-13 00:23:00,65.3,62.0,29.93,South,187,2.0,3.0,89,0.00,,,0.00,Wunderground v.1.15,2013-09-13 04:23:00,
2013-09-13 00:25:00,65.2,62.2,29.93,SW,216,3.0,4.0,90,0.00,,,0.00,Wunderground v.1.15,2013-09-13 04:25:00,
2013-09-13 00:28:00,65.0,62.0,29.93,NE,34,3.0,4.0,90,0.00,,,0.00,Wunderground v.1.15,2013-09-13 04:28:00,
2013-09-13 00:29:00,65.0,62.0,29.93,NNE,27,3.0,4.0,90,0.00,,,0.00,Wunderground v.1.15,2013-09-13 04:29:00,
2013-09-13 00:30:00,64.9,61.9,29.93,NNE,27,3.0,3.0,90,0.00,,,0.00,Wunderground v.1.15,2013-09-13 04:30:00,
2013-09-13 00:31:00,64.9,61.6,29.93,NNE,27,3.0,3.0,89,0.00,,,0.00,Wunderground v.1.15,2013-09-13 04:31:00,
2013-09-13 00:32:00,64.9,61.6,29.93,NNE,27,2.0,3.0,89,0.00,,,0.00,Wunderground v.1.15,2013-09-13 04:32:00,
2013-09-13 00:33:00,64.9,61.6,29.93,NNE,27,2.0,3.0,89,0.00,,,0.00,Wunderground v.1.15,2013-09-13 04:33:00,
2013-09-13 00:34:00,64.9,61.6,29.92,NNE,27,2.0,3.0,89,0.00,,,0.00,Wunderground v.1.15,2013-09-13 04:34:00,
2013-09-13 00:35:00,64.9,61.6,29.93,North,355,2.0,3.0,89,0.00,,,0.00,Wunderground v.1.15,2013-09-13 04:35:00,
2013-09-13 00:39:00,64.8,61.8,29.93,NE,40,1.0,6.0,90,0.00,,,0.00,Wunderground v.1.15,2013-09-13 04:39:00,
2013-09-13 00:40:00,64.8,61.8,29.93,East,98,1.0,2.0,90,0.00,,,0.00,Wunderground v.1.15,2013-09-13 04:40:00,
2013-09-13 00:43:00,64.8,61.8,29.93,WSW,254,2.0,6.0,90,0.00,,,0.00,Wunderground v.1.15,2013-09-13 04:43:00,
2013-09-13 00:44:00,64.8,62.1,29.93,WSW,240,2.0,6.0,91,0.00,,,0.00,Wunderground v.1.15,2013-09-13 04:44:00,
2013-09-13 00:45:00,64.7,61.7,29.93,SW,227,2.0,6.0,90,0.00,,,0.00,Wunderground v.1.15,2013-09-13 04:45:00,
2013-09-13 00:47:00,64.7,61.7,29.93,NW,317,3.0,6.0,90,0.00,,,0.00,Wunderground v.1.15,2013-09-13 04:47:00,
2013-09-13 00:48:00,64.7,61.7,29.93,SE,131,3.0,6.0,90,0.00,,,0.00,Wunderground v.1.15,2013-09-13 04:48:00,
2013-09-13 00:51:00,64.7,61.7,29.93,West,263,3.0,4.0,90,0.00,,,0.00,Wunderground v.1.15,2013-09-13 04:51:00,
2013-09-13 00:53:00,64.7,61.4,29.93,WSW,237,3.0,4.0,89,0.00,,,0.00,Wunderground v.1.15,2013-09-13 04:53:00,
2013-09-13 00:54:00,64.8,61.5,29.92,South,171,3.0,4.0,89,0.00,,,0.00,Wunderground v.1.15,2013-09-13 04:54:00,
2013-09-13 00:55:00,64.8,61.5,29.93,SSW,211,3.0,4.0,89,0.00,,,0.00,Wunderground v.1.15,2013-09-13 04:55:00,
2013-09-13 00:59:00,65.0,61.4,29.92,NNE,28,3.0,5.0,88,0.00,,,0.00,Wunderground v.1.15,2013-09-13 04:59:00,
2013-09-13 01:01:00,65.2,61.2,29.92,SSE,159,3.0,10.0,87,0.00,,,0.00,Wunderground v.1.15,2013-09-13 05:01:00,
2013-09-13 01:02:00,65.3,61.3,29.92,SSE,161,3.0,10.0,87,0.00,,,0.00,Wunderground v.1.15,2013-09-13 05:02:00,
2013-09-13 01:04:00,65.4,61.4,29.92,SSE,161,2.0,10.0,87,0.00,,,0.00,Wunderground v.1.15,2013-09-13 05:04:00,
2013-09-13 01:07:00,65.5,61.5,29.92,WSW,250,2.0,10.0,87,0.00,,,0.00,Wunderground v.1.15,2013-09-13 05:07:00,
2013-09-13 01:10:00,65.8,61.5,29.92,North,350,2.0,10.0,86,0.00,,,0.00,Wunderground v.1.15,2013-09-13 05:10:00,
2013-09-13 01:12:00,65.9,61.3,29.92,East,96,2.0,10.0,85,0.00,,,0.00,Wunderground v.1.15,2013-09-13 05:12:00,
2013-09-13 01:13:00,65.9,61.3,29.92,ENE,61,2.0,10.0,85,0.00,,,0.00,Wunderground v.1.15,2013-09-13 05:13:00,
2013-09-13 01:18:00,66.1,61.5,29.92,WNW,284,3.0,10.0,85,0.00,,,0.00,Wunderground v.1.15,2013-09-13 05:18:00,
2013-09-13 01:19:00,66.1,61.5,29.92,WNW,298,3.0,10.0,85,0.00,,,0.00,Wunderground v.1.15,2013-09-13 05:19:00,
2013-09-13 01:20:00,66.2,61.9,29.92,West,273,3.0,3.0,86,0.00,,,0.00,Wunderground v.1.15,2013-09-13 05:20:00,
2013-09-13 01:22:00,66.2,61.9,29.92,NW,317,3.0,10.0,86,0.00,,,0.00,Wunderground v.1.15,2013-09-13 05:22:00,
2013-09-13 01:24:00,66.2,61.9,29.92,West,277,3.0,10.0,86,0.00,,,0.00,Wunderground v.1.15,2013-09-13 05:24:00,
2013-09-13 01:26:00,66.3,62.0,29.92,West,274,4.0,10.0,86,0.00,,,0.00,Wunderground v.1.15,2013-09-13 05:26:00,
2013-09-13 01:29:00,66.5,62.2,29.92,West,281,4.0,10.0,86,0.00,,,0.00,Wunderground v.1.15,2013-09-13 05:29:00,
2013-09-13 01:30:00,66.5,62.2,29.92,NW,309,4.0,4.0,86,0.00,,,0.00,Wunderground v.1.15,2013-09-13 05:30:00,
2013-09-13 01:31:00,66.5,62.2,29.92,West,275,4.0,5.0,86,0.00,,,0.00,Wunderground v.1.15,2013-09-13 05:31:00,
2013-09-13 01:32:00,66.5,62.2,29.92,West,276,4.0,6.0,86,0.00,,,0.00,Wunderground v.1.15,2013-09-13 05:32:00,
2013-09-13 01:34:00,66.6,62.3,29.92,WSW,255,5.0,10.0,86,0.00,,,0.00,Wunderground v.1.15,2013-09-13 05:34:00,
2013-09-13 01:35:00,66.6,62.3,29.92,WNW,286,5.0,10.0,86,0.00,,,0.00,Wunderground v.1.15,2013-09-13 05:35:00,
2013-09-13 01:37:00,66.7,62.4,29.92,WNW,295,5.0,10.0,86,0.00,,,0.00,Wunderground v.1.15,2013-09-13 05:37:00,
2013-09-13 01:39:00,66.7,62.4,29.92,SW,236,4.0,10.0,86,0.00,,,0.00,Wunderground v.1.15,2013-09-13 05:39:00,
2013-09-13 01:42:00,66.8,62.5,29.92,WSW,241,3.0,10.0,86,0.00,,,0.00,Wunderground v.1.15,2013-09-13 05:42:00,
2013-09-13 01:47:00,66.8,62.5,29.92,WSW,257,3.0,10.0,86,0.00,,,0.00,Wunderground v.1.15,2013-09-13 05:47:00,
2013-09-13 01:48:00,66.7,62.7,29.92,WSW,246,3.0,10.0,87,0.00,,,0.00,Wunderground v.1.15,2013-09-13 05:48:00,
2013-09-13 01:49:00,66.7,62.7,29.92,WSW,246,3.0,10.0,87,0.00,,,0.00,Wunderground v.1.15,2013-09-13 05:49:00,
2013-09-13 01:50:00,66.6,62.6,29.92,West,273,3.0,10.0,87,0.00,,,0.00,Wunderground v.1.15,2013-09-13 05:50:00,
2013-09-13 01:52:00,66.4,62.4,29.92,West,263,4.0,10.0,87,0.00,,,0.00,Wunderground v.1.15,2013-09-13 05:52:00,
2013-09-13 01:55:00,66.3,62.6,29.92,West,273,4.0,10.0,88,0.00,,,0.00,Wunderground v.1.15,2013-09-13 05:55:00,
2013-09-13 01:56:00,66.2,62.5,29.92,West,279,4.0,10.0,88,0.00,,,0.00,Wunderground v.1.15,2013-09-13 05:56:00,
2013-09-13 01:57:00,66.2,62.5,29.92,West,277,4.0,10.0,88,0.00,,,0.00,Wunderground v.1.15,2013-09-13 05:57:00,
2013-09-13 01:58:00,66.2,62.5,29.92,West,263,4.0,10.0,88,0.00,,,0.00,Wunderground v.1.15,2013-09-13 05:58:00,
2013-09-13 02:01:00,66.1,62.8,29.92,West,264,5.0,10.0,89,0.00,,,0.00,Wunderground v.1.15,2013-09-13 06:01:00,
2013-09-13 02:02:00,66.1,62.8,29.92,West,264,5.0,10.0,89,0.00,,,0.00,Wunderground v.1.15,2013-09-13 06:02:00,
2013-09-13 02:07:00,66.3,63.0,29.92,West,262,6.0,10.0,89,0.00,,,0.00,Wunderground v.1.15,2013-09-13 06:07:00,
2013-09-13 02:08:00,66.3,62.6,29.92,West,271,6.0,10.0,88,0.00,,,0.00,Wunderground v.1.15,2013-09-13 06:08:00,
2013-09-13 02:12:00,66.4,63.1,29.91,West,275,6.0,10.0,89,0.00,,,0.00,Wunderground v.1.15,2013-09-13 06:12:00,
2013-09-13 02:13:00,66.3,63.0,29.91,West,267,6.0,10.0,89,0.00,,,0.00,Wunderground v.1.15,2013-09-13 06:13:00,
2013-09-13 02:14:00,66.3,63.0,29.91,West,280,6.0,10.0,89,0.00,,,0.00,Wunderground v.1.15,2013-09-13 06:14:00,
2013-09-13 02:15:00,66.3,63.0,29.91,SW,236,6.0,10.0,89,0.00,,,0.00,Wunderground v.1.15,2013-09-13 06:15:00,
2013-09-13 02:19:00,66.3,63.0,29.91,WSW,239,6.0,10.0,89,0.00,,,0.00,Wunderground v.1.15,2013-09-13 06:19:00,
2013-09-13 02:20:00,66.3,63.0,29.91,WSW,248,6.0,6.0,89,0.00,,,0.00,Wunderground v.1.15,2013-09-13 06:20:00,
2013-09-13 02:22:00,66.2,62.9,29.91,West,261,5.0,10.0,89,0.00,,,0.00,Wunderground v.1.15,2013-09-13 06:22:00,
2013-09-13 02:23:00,66.2,62.9,29.91,SW,225,5.0,10.0,89,0.00,,,0.00,Wunderground v.1.15,2013-09-13 06:23:00,
2013-09-13 02:24:00,66.2,63.2,29.91,SW,230,4.0,10.0,90,0.00,,,0.00,Wunderground v.1.15,2013-09-13 06:24:00,
2013-09-13 02:25:00,66.1,62.8,29.91,WSW,257,4.0,10.0,89,0.00,,,0.00,Wunderground v.1.15,2013-09-13 06:25:00,
2013-09-13 02:26:00,66.1,63.1,29.91,WSW,257,4.0,10.0,90,0.00,,,0.00,Wunderground v.1.15,2013-09-13 06:26:00,
2013-09-13 02:28:00,66.0,63.0,29.91,WSW,258,3.0,10.0,90,0.00,,,0.00,Wunderground v.1.15,2013-09-13 06:28:00,
2013-09-13 02:29:00,66.0,62.7,29.91,WSW,258,3.0,10.0,89,0.00,,,0.00,Wunderground v.1.15,2013-09-13 06:29:00,
2013-09-13 02:30:00,66.0,63.0,29.91,WSW,258,2.0,2.0,90,0.00,,,0.00,Wunderground v.1.15,2013-09-13 06:30:00,
2013-09-13 02:34:00,65.9,62.9,29.90,South,173,1.0,10.0,90,0.00,,,0.00,Wunderground v.1.15,2013-09-13 06:34:00,
2013-09-13 02:35:00,65.9,62.9,29.90,South,173,1.0,10.0,90,0.00,,,0.00,Wunderground v.1.15,2013-09-13 06:35:00,
2013-09-13 02:36:00,65.9,62.9,29.90,SSW,204,1.0,10.0,90,0.00,,,0.00,Wunderground v.1.15,2013-09-13 06:36:00,
2013-09-13 02:38:00,65.9,62.9,29.90,SW,236,1.0,10.0,90,0.00,,,0.00,Wunderground v.1.15,2013-09-13 06:38:00,
2013-09-13 02:41:00,65.9,62.9,29.90,West,279,2.0,10.0,90,0.00,,,0.00,Wunderground v.1.15,2013-09-13 06:41:00,
2013-09-13 02:43:00,65.9,62.9,29.90,NNW,333,2.0,10.0,90,0.00,,,0.00,Wunderground v.1.15,2013-09-13 06:43:00,
2013-09-13 02:44:00,66.0,63.0,29.90,NNE,26,2.0,10.0,90,0.00,,,0.00,Wunderground v.1.15,2013-09-13 06:44:00,
2013-09-13 02:46:00,66.2,63.2,29.90,NNW,339,3.0,10.0,90,0.00,,,0.00,Wunderground v.1.15,2013-09-13 06:46:00,
2013-09-13 02:47:00,66.3,63.0,29.90,WNW,296,3.0,10.0,89,0.00,,,0.00,Wunderground v.1.15,2013-09-13 06:47:00,
2013-09-13 02:48:00,66.4,63.1,29.90,NNW,339,4.0,10.0,89,0.00,,,0.00,Wunderground v.1.15,2013-09-13 06:48:00,
2013-09-13 02:49:00,66.5,63.2,29.90,NW,324,4.0,10.0,89,0.00,,,0.00,Wunderground v.1.15,2013-09-13 06:49:00,
2013-09-13 02:50:00,66.5,63.2,29.90,NW,317,4.0,10.0,89,0.00,,,0.00,Wunderground v.1.15,2013-09-13 06:50:00,
2013-09-13 02:55:00,66.5,63.2,29.90,West,276,4.0,10.0,89,0.00,,,0.00,Wunderground v.1.15,2013-09-13 06:55:00,
2013-09-13 02:56:00,66.5,63.2,29.90,West,276,4.0,10.0,89,0.00,,,0.00,Wunderground v.1.15,2013-09-13 06:56:00,
2013-09-13 02:59:00,66.3,63.0,29.90,West,276,3.0,10.0,89,0.00,,,0.00,Wunderground v.1.15,2013-09-13 06:59:00,
2013-09-13 03:02:00,66.3,63.3,29.90,West,276,1.0,10.0,90,0.00,,,0.00,Wunderground v.1.15,2013-09-13 07:02:00,
2013-09-13 03:03:00,66.2,63.2,29.90,SSW,213,1.0,10.0,90,0.00,,,0.00,Wunderground v.1.15,2013-09-13 07:03:00,
2013-09-13 03:08:00,66.0,63.0,29.90,SSW,203,1.0,10.0,90,0.00,,,0.00,Wunderground v.1.15,2013-09-13 07:08:00,
2013-09-13 03:09:00,65.9,62.9,29.90,SSW,203,1.0,10.0,90,0.00,,,0.00,Wunderground v.1.15,2013-09-13 07:09:00,
2013-09-13 03:10:00,65.9,62.9,29.89,SSW,203,2.0,10.0,90,0.00,,,0.00,Wunderground v.1.15,2013-09-13 07:10:00,
2013-09-13 03:15:00,65.8,63.1,29.89,SSW,203,2.0,10.0,91,0.00,,,0.00,Wunderground v.1.15,2013-09-13 07:15:00,
2013-09-13 03:16:00,65.8,63.1,29.89,SSW,203,2.0,10.0,91,0.00,,,0.00,Wunderground v.1.15,2013-09-13 07:16:00,
2013-09-13 03:17:00,65.8,63.1,29.89,WSW,252,2.0,10.0,91,0.00,,,0.00,Wunderground v.1.15,2013-09-13 07:17:00,
2013-09-13 03:19:00,65.8,63.1,29.89,WSW,244,2.0,10.0,91,0.00,,,0.00,Wunderground v.1.15,2013-09-13 07:19:00,
2013-09-13 03:23:00,65.8,63.1,29.89,WSW,244,2.0,10.0,91,0.00,,,0.00,Wunderground v.1.15,2013-09-13 07:23:00,
2013-09-13 03:24:00,65.7,63.0,29.89,WSW,244,2.0,10.0,91,0.00,,,0.00,Wunderground v.1.15,2013-09-13 07:24:00,
2013-09-13 03:25:00,65.7,63.0,29.88,WSW,244,2.0,10.0,91,0.00,,,0.00,Wunderground v.1.15,2013-09-13 07:25:00,
2013-09-13 03:27:00,65.6,62.9,29.89,WNW,297,2.0,10.0,91,0.00,,,0.00,Wunderground v.1.15,2013-09-13 07:27:00,
2013-09-13 03:30:00,65.6,62.9,29.89,West,273,2.0,2.0,91,0.00,,,0.00,Wunderground v.1.15,2013-09-13 07:30:00,
2013-09-13 03:31:00,65.5,62.8,29.89,West,273,2.0,10.0,91,0.00,,,0.00,Wunderground v.1.15,2013-09-13 07:31:00,
2013-09-13 03:33:00,65.5,62.8,29.88,West,273,2.0,10.0,91,0.00,,,0.00,Wunderground v.1.15,2013-09-13 07:33:00,
2013-09-13 03:34:00,65.4,62.7,29.88,West,273,2.0,10.0,91,0.00,,,0.00,Wunderground v.1.15,2013-09-13 07:34:00,
2013-09-13 03:37:00,65.4,62.7,29.88,West,267,1.0,10.0,91,0.00,,,0.00,Wunderground v.1.15,2013-09-13 07:37:00,
2013-09-13 03:38:00,65.4,62.7,29.88,West,268,1.0,10.0,91,0.00,,,0.00,Wunderground v.1.15,2013-09-13 07:38:00,
2013-09-13 03:39:00,65.4,62.7,29.89,West,268,1.0,10.0,91,0.00,,,0.00,Wunderground v.1.15,2013-09-13 07:39:00,
2013-09-13 03:42:00,65.3,62.6,29.88,West,266,1.0,10.0,91,0.00,,,0.00,Wunderground v.1.15,2013-09-13 07:42:00,
2013-09-13 03:44:00,65.3,62.6,29.89,West,266,1.0,10.0,91,0.00,,,0.00,Wunderground v.1.15,2013-09-13 07:44:00,
2013-09-13 03:47:00,65.2,62.5,29.89,WNW,287,1.0,10.0,91,0.00,,,0.00,Wunderground v.1.15,2013-09-13 07:47:00,
2013-09-13 03:48:00,65.3,62.6,29.89,WNW,288,1.0,10.0,91,0.00,,,0.00,Wunderground v.1.15,2013-09-13 07:48:00,
2013-09-13 03:52:00,65.7,62.7,29.88,SW,232,2.0,10.0,90,0.00,,,0.00,Wunderground v.1.15,2013-09-13 07:52:00,
2013-09-13 03:54:00,65.7,62.7,29.88,SW,232,2.0,10.0,90,0.00,,,0.00,Wunderground v.1.15,2013-09-13 07:54:00,
2013-09-13 03:55:00,65.8,62.8,29.88,SW,232,2.0,10.0,90,0.00,,,0.00,Wunderground v.1.15,2013-09-13 07:55:00,
2013-09-13 03:57:00,65.7,62.7,29.89,SW,232,2.0,10.0,90,0.00,,,0.00,Wunderground v.1.15,2013-09-13 07:57:00,
2013-09-13 03:59:00,65.6,62.6,29.88,SSW,200,2.0,10.0,90,0.00,,,0.00,Wunderground v.1.15,2013-09-13 07:59:00,
2013-09-13 04:00:00,65.6,62.6,29.88,SSW,200,2.0,2.0,90,0.00,,,0.00,Wunderground v.1.15,2013-09-13 08:00:00,
2013-09-13 04:01:00,65.6,62.6,29.88,SSW,200,1.0,4.0,90,0.00,,,0.00,Wunderground v.1.15,2013-09-13 08:01:00,
2013-09-13 04:04:00,65.4,62.4,29.88,SSW,198,1.0,10.0,90,0.00,,,0.00,Wunderground v.1.15,2013-09-13 08:04:00,
2013-09-13 04:07:00,65.4,62.4,29.88,SSW,198,1.0,10.0,90,0.00,,,0.00,Wunderground v.1.15,2013-09-13 08:07:00,
2013-09-13 04:08:00,65.4,62.4,29.88,SSW,198,1.0,10.0,90,0.00,,,0.00,Wunderground v.1.15,2013-09-13 08:08:00,
2013-09-13 04:09:00,65.4,62.4,29.88,SSW,198,1.0,10.0,90,0.00,,,0.00,Wunderground v.1.15,2013-09-13 08:09:00,
2013-09-13 04:11:00,65.4,62.4,29.88,West,268,1.0,10.0,90,0.00,,,0.00,Wunderground v.1.15,2013-09-13 08:11:00,
2013-09-13 04:13:00,65.3,62.3,29.89,West,269,1.0,10.0,90,0.00,,,0.00,Wunderground v.1.15,2013-09-13 08:13:00,
2013-09-13 04:15:00,65.3,62.3,29.89,West,267,1.0,10.0,90,0.00,,,0.00,Wunderground v.1.15,2013-09-13 08:15:00,
2013-09-13 04:19:00,65.3,62.3,29.88,SSE,166,2.0,10.0,90,0.00,,,0.00,Wunderground v.1.15,2013-09-13 08:19:00,
2013-09-13 04:20:00,65.4,62.4,29.88,SE,145,2.0,2.0,90,0.00,,,0.00,Wunderground v.1.15,2013-09-13 08:20:00,
2013-09-13 04:21:00,65.4,62.4,29.88,SE,145,2.0,10.0,90,0.00,,,0.00,Wunderground v.1.15,2013-09-13 08:21:00,
2013-09-13 04:23:00,65.5,62.5,29.89,SE,145,2.0,10.0,90,0.00,,,0.00,Wunderground v.1.15,2013-09-13 08:23:00,
2013-09-13 04:26:00,65.6,62.6,29.88,SE,145,1.0,10.0,90,0.00,,,0.00,Wunderground v.1.15,2013-09-13 08:26:00,
2013-09-13 04:28:00,65.6,62.6,29.88,SE,145,1.0,10.0,90,0.00,,,0.00,Wunderground v.1.15,2013-09-13 08:28:00,
2013-09-13 04:29:00,65.6,62.6,29.88,SE,145,1.0,10.0,90,0.00,,,0.00,Wunderground v.1.15,2013-09-13 08:29:00,
2013-09-13 04:31:00,65.7,62.7,29.88,SE,145,1.0,10.0,90,0.00,,,0.00,Wunderground v.1.15,2013-09-13 08:31:00,
2013-09-13 04:33:00,65.7,62.4,29.88,SSE,163,1.0,10.0,89,0.00,,,0.00,Wunderground v.1.15,2013-09-13 08:33:00,
2013-09-13 04:34:00,65.7,62.7,29.88,SE,146,1.0,10.0,90,0.00,,,0.00,Wunderground v.1.15,2013-09-13 08:34:00,
2013-09-13 04:35:00,65.7,62.7,29.88,SE,146,1.0,10.0,90,0.00,,,0.00,Wunderground v.1.15,2013-09-13 08:35:00,
2013-09-13 04:36:00,65.6,62.6,29.88,NW,320,1.0,10.0,90,0.00,,,0.00,Wunderground v.1.15,2013-09-13 08:36:00,
2013-09-13 04:37:00,65.6,62.6,29.88,NNW,337,1.0,10.0,90,0.00,,,0.00,Wunderground v.1.15,2013-09-13 08:37:00,
2013-09-13 04:40:00,66.0,62.7,29.88,East,86,2.0,10.0,89,0.00,,,0.00,Wunderground v.1.15,2013-09-13 08:40:00,
2013-09-13 04:41:00,66.2,62.5,29.88,ENE,65,2.0,10.0,88,0.00,,,0.00,Wunderground v.1.15,2013-09-13 08:41:00,
2013-09-13 04:43:00,66.5,62.8,29.88,NW,309,3.0,10.0,88,0.00,,,0.00,Wunderground v.1.15,2013-09-13 08:43:00,
2013-09-13 04:46:00,66.5,62.8,29.88,North,360,3.0,10.0,88,0.00,,,0.00,Wunderground v.1.15,2013-09-13 08:46:00,
2013-09-13 04:48:00,66.5,62.8,29.88,NNE,25,3.0,10.0,88,0.00,,,0.00,Wunderground v.1.15,2013-09-13 08:48:00,
2013-09-13 04:49:00,66.6,62.6,29.89,NNE,27,4.0,10.0,87,0.00,,,0.00,Wunderground v.1.15,2013-09-13 08:49:00,
2013-09-13 04:50:00,66.7,62.7,29.88,NE,51,3.0,10.0,87,0.00,,,0.00,Wunderground v.1.15,2013-09-13 08:50:00,
2013-09-13 04:51:00,66.8,62.8,29.88,NE,46,4.0,10.0,87,0.00,,,0.00,Wunderground v.1.15,2013-09-13 08:51:00,
2013-09-13 04:53:00,67.0,63.0,29.88,NNE,28,4.0,10.0,87,0.00,,,0.00,Wunderground v.1.15,2013-09-13 08:53:00,
2013-09-13 04:57:00,66.9,62.9,29.88,North,10,5.0,10.0,87,0.00,,,0.00,Wunderground v.1.15,2013-09-13 08:57:00,
2013-09-13 04:58:00,66.8,62.8,29.88,NW,315,4.0,10.0,87,0.00,,,0.00,Wunderground v.1.15,2013-09-13 08:58:00,
2013-09-13 05:00:00,66.5,62.5,29.88,NNW,329,4.0,10.0,87,0.00,,,0.00,Wunderground v.1.15,2013-09-13 09:00:00,
2013-09-13 05:02:00,66.1,62.4,29.88,North,355,4.0,10.0,88,0.00,,,0.00,Wunderground v.1.15,2013-09-13 09:02:00,
2013-09-13 05:06:00,65.8,62.1,29.88,NNE,32,4.0,10.0,88,0.00,,,0.00,Wunderground v.1.15,2013-09-13 09:06:00,
2013-09-13 05:07:00,65.8,62.5,29.88,NW,308,4.0,10.0,89,0.00,,,0.00,Wunderground v.1.15,2013-09-13 09:07:00,
2013-09-13 05:08:00,65.8,62.1,29.88,WNW,301,4.0,10.0,88,0.00,,,0.00,Wunderground v.1.15,2013-09-13 09:08:00,
2013-09-13 05:12:00,65.9,62.2,29.89,NW,323,5.0,10.0,88,0.00,,,0.00,Wunderground v.1.15,2013-09-13 09:12:00,
2013-09-13 05:13:00,65.9,62.2,29.88,NW,325,5.0,10.0,88,0.00,,,0.00,Wunderground v.1.15,2013-09-13 09:13:00,
2013-09-13 05:15:00,65.9,62.6,29.88,NNE,23,5.0,10.0,89,0.00,,,0.00,Wunderground v.1.15,2013-09-13 09:15:00,
2013-09-13 05:17:00,65.9,62.2,29.89,NNW,344,5.0,10.0,88,0.00,,,0.00,Wunderground v.1.15,2013-09-13 09:17:00,
2013-09-13 05:18:00,66.0,62.3,29.89,West,276,5.0,10.0,88,0.00,,,0.00,Wunderground v.1.15,2013-09-13 09:18:00,
2013-09-13 05:19:00,66.1,62.4,29.89,NNW,334,5.0,10.0,88,0.00,,,0.00,Wunderground v.1.15,2013-09-13 09:19:00,
2013-09-13 05:21:00,66.2,62.5,29.89,NNW,332,6.0,10.0,88,0.00,,,0.00,Wunderground v.1.15,2013-09-13 09:21:00,
2013-09-13 05:23:00,66.2,62.5,29.89,NNW,343,6.0,10.0,88,0.00,,,0.00,Wunderground v.1.15,2013-09-13 09:23:00,
2013-09-13 05:24:00,66.2,62.5,29.89,NNW,340,7.0,10.0,88,0.00,,,0.00,Wunderground v.1.15,2013-09-13 09:24:00,
2013-09-13 05:28:00,66.3,62.6,29.89,WNW,302,8.0,10.0,88,0.00,,,0.00,Wunderground v.1.15,2013-09-13 09:28:00,
2013-09-13 05:29:00,66.3,62.6,29.89,NW,322,8.0,10.0,88,0.00,,,0.00,Wunderground v.1.15,2013-09-13 09:29:00,
2013-09-13 05:30:00,66.3,62.3,29.89,NNW,340,8.0,11.0,87,0.00,,,0.00,Wunderground v.1.15,2013-09-13 09:30:00,
2013-09-13 05:34:00,66.5,62.5,29.89,North,5,9.0,11.0,87,0.00,,,0.00,Wunderground v.1.15,2013-09-13 09:34:00,
2013-09-13 05:35:00,66.5,62.2,29.89,NNW,330,9.0,11.0,86,0.00,,,0.00,Wunderground v.1.15,2013-09-13 09:35:00,
2013-09-13 05:37:00,66.5,62.2,29.89,North,5,9.0,11.0,86,0.00,,,0.00,Wunderground v.1.15,2013-09-13 09:37:00,
2013-09-13 05:40:00,66.4,62.4,29.89,NNW,333,9.0,9.0,87,0.00,,,0.00,Wunderground v.1.15,2013-09-13 09:40:00,
2013-09-13 05:42:00,66.2,62.2,29.89,NW,326,8.0,10.0,87,0.00,,,0.00,Wunderground v.1.15,2013-09-13 09:42:00,
2013-09-13 05:44:00,66.1,62.1,29.89,NNW,333,7.0,10.0,87,0.00,,,0.00,Wunderground v.1.15,2013-09-13 09:44:00,
2013-09-13 05:45:00,66.1,62.1,29.90,NNW,332,7.0,12.0,87,0.00,,,0.00,Wunderground v.1.15,2013-09-13 09:45:00,
2013-09-13 05:47:00,66.1,62.1,29.90,NW,325,8.0,13.0,87,0.00,,,0.00,Wunderground v.1.15,2013-09-13 09:47:00,
2013-09-13 05:49:00,66.2,62.2,29.90,NNW,344,8.0,13.0,87,0.00,,,0.00,Wunderground v.1.15,2013-09-13 09:49:00,
2013-09-13 05:51:00,66.1,62.1,29.90,NNW,340,9.0,9.0,87,0.00,,,0.00,Wunderground v.1.15,2013-09-13 09:51:00,
2013-09-13 05:52:00,66.1,62.1,29.90,NNW,343,9.0,14.0,87,0.00,,,0.00,Wunderground v.1.15,2013-09-13 09:52:00,
2013-09-13 05:54:00,66.1,62.1,29.90,NNW,348,9.0,14.0,87,0.00,,,0.00,Wunderground v.1.15,2013-09-13 09:54:00,
2013-09-13 05:55:00,66.1,62.1,29.90,NW,319,9.0,14.0,87,0.00,,,0.00,Wunderground v.1.15,2013-09-13 09:55:00,
2013-09-13 05:56:00,66.0,62.0,29.90,WNW,295,9.0,14.0,87,0.00,,,0.00,Wunderground v.1.15,2013-09-13 09:56:00,
2013-09-13 05:59:00,65.9,61.9,29.90,North,350,8.0,14.0,87,0.00,,,0.00,Wunderground v.1.15,2013-09-13 09:59:00,
2013-09-13 06:00:00,66.0,62.0,29.90,NNW,348,8.0,8.0,87,0.00,,,0.00,Wunderground v.1.15,2013-09-13 10:00:00,
2013-09-13 06:01:00,66.0,62.0,29.90,NNW,337,8.0,10.0,87,0.00,,,0.00,Wunderground v.1.15,2013-09-13 10:01:00,
2013-09-13 06:02:00,65.9,61.9,29.91,NNW,331,8.0,10.0,87,0.00,,,0.00,Wunderground v.1.15,2013-09-13 10:02:00,
2013-09-13 06:05:00,65.8,61.8,29.91,NNW,329,6.0,10.0,87,0.00,,,0.00,Wunderground v.1.15,2013-09-13 10:05:00,
2013-09-13 06:06:00,65.8,61.8,29.91,NNW,329,6.0,10.0,87,0.00,,,0.00,Wunderground v.1.15,2013-09-13 10:06:00,
2013-09-13 06:08:00,65.7,61.7,29.91,NNW,333,5.0,10.0,87,0.00,,,0.00,Wunderground v.1.15,2013-09-13 10:08:00,
2013-09-13 06:11:00,65.6,61.6,29.91,NW,321,5.0,10.0,87,0.00,,,0.00,Wunderground v.1.15,2013-09-13 10:11:00,
2013-09-13 06:12:00,65.6,61.6,29.91,North,355,4.0,10.0,87,0.00,,,0.00,Wunderground v.1.15,2013-09-13 10:12:00,
2013-09-13 06:13:00,65.5,61.5,29.91,NW,317,4.0,13.0,87,0.00,,,0.00,Wunderground v.1.15,2013-09-13 10:13:00,
2013-09-13 06:15:00,65.6,61.6,29.91,NW,308,5.0,13.0,87,0.00,,,0.00,Wunderground v.1.15,2013-09-13 10:15:00,
2013-09-13 06:17:00,65.8,61.8,29.91,North,355,6.0,13.0,87,0.00,,,0.00,Wunderground v.1.15,2013-09-13 10:17:00,
2013-09-13 06:18:00,65.8,61.8,29.91,NNW,343,6.0,13.0,87,0.00,,,0.00,Wunderground v.1.15,2013-09-13 10:18:00,
2013-09-13 06:19:00,65.8,61.8,29.91,NNW,329,5.0,13.0,87,0.00,,,0.00,Wunderground v.1.15,2013-09-13 10:19:00,
2013-09-13 06:20:00,65.8,61.8,29.91,WNW,294,5.0,5.0,87,0.00,,,0.00,Wunderground v.1.15,2013-09-13 10:20:00,
2013-09-13 06:22:00,65.6,61.6,29.91,NNW,329,6.0,10.0,87,0.00,,,0.00,Wunderground v.1.15,2013-09-13 10:22:00,
2013-09-13 06:25:00,65.4,61.4,29.91,NW,325,6.0,10.0,87,0.00,,,0.00,Wunderground v.1.15,2013-09-13 10:25:00,
2013-09-13 06:27:00,65.4,61.4,29.91,NNW,339,6.0,12.0,87,0.00,,,0.00,Wunderground v.1.15,2013-09-13 10:27:00,
2013-09-13 06:29:00,65.4,61.4,29.91,WNW,284,6.0,12.0,87,0.00,,,0.00,Wunderground v.1.15,2013-09-13 10:29:00,
2013-09-13 06:30:00,65.4,61.4,29.91,West,281,7.0,10.0,87,0.00,,,0.00,Wunderground v.1.15,2013-09-13 10:30:00,
2013-09-13 06:31:00,65.4,61.4,29.91,NNE,12,7.0,10.0,87,0.00,,,0.00,Wunderground v.1.15,2013-09-13 10:31:00,
2013-09-13 06:34:00,65.4,61.4,29.91,NNW,338,7.0,10.0,87,0.00,,,0.00,Wunderground v.1.15,2013-09-13 10:34:00,
2013-09-13 06:35:00,65.4,61.4,29.91,NW,318,6.0,10.0,87,0.00,,,0.00,Wunderground v.1.15,2013-09-13 10:35:00,
2013-09-13 06:37:00,65.3,61.3,29.91,NNW,330,6.0,10.0,87,0.00,,,0.00,Wunderground v.1.15,2013-09-13 10:37:00,
2013-09-13 06:38:00,65.3,61.3,29.91,NW,315,5.0,10.0,87,0.00,,,0.00,Wunderground v.1.15,2013-09-13 10:38:00,
2013-09-13 06:40:00,65.2,61.2,29.91,NNW,348,5.0,10.0,87,0.00,,,0.00,Wunderground v.1.15,2013-09-13 10:40:00,
2013-09-13 06:43:00,65.2,61.2,29.91,NW,318,5.0,10.0,87,0.00,,,0.00,Wunderground v.1.15,2013-09-13 10:43:00,
2013-09-13 06:45:00,65.2,61.2,29.92,NNE,27,5.0,10.0,87,0.00,,,0.00,Wunderground v.1.15,2013-09-13 10:45:00,
2013-09-13 06:47:00,65.2,61.2,29.91,North,349,6.0,10.0,87,0.00,,,0.00,Wunderground v.1.15,2013-09-13 10:47:00,
2013-09-13 06:50:00,65.2,61.2,29.92,NW,318,6.0,10.0,87,0.00,,,0.00,Wunderground v.1.15,2013-09-13 10:50:00,
2013-09-13 06:51:00,65.2,61.2,29.92,East,93,6.0,10.0,87,0.00,,,0.00,Wunderground v.1.15,2013-09-13 10:51:00,
2013-09-13 06:53:00,65.2,61.2,29.92,North,355,6.0,10.0,87,0.00,,,0.00,Wunderground v.1.15,2013-09-13 10:53:00,
2013-09-13 06:55:00,65.2,61.2,29.92,NNE,25,6.0,10.0,87,0.00,,,0.00,Wunderground v.1.15,2013-09-13 10:55:00,
2013-09-13 06:56:00,65.2,61.2,29.92,NW,321,6.0,10.0,87,0.00,,,0.00,Wunderground v.1.15,2013-09-13 10:56:00,
2013-09-13 07:00:00,65.1,61.1,29.92,NNW,348,6.0,10.0,87,0.00,,,0.00,Wunderground v.1.15,2013-09-13 11:00:00,
2013-09-13 07:01:00,65.1,61.1,29.92,North,360,6.0,10.0,87,0.00,,,0.00,Wunderground v.1.15,2013-09-13 11:01:00,
2013-09-13 07:03:00,65.0,61.0,29.92,NE,44,5.0,10.0,87,0.00,,,0.00,Wunderground v.1.15,2013-09-13 11:03:00,
2013-09-13 19:00:00,67.9,54.4,29.90,NW,323,5.0,8.0,62,0.00,,,0.00,Wunderground v.1.15,2013-09-13 23:00:00,
2013-09-13 19:01:00,67.7,54.2,29.90,NW,318,6.0,10.0,62,0.00,,,0.00,Wunderground v.1.15,2013-09-13 23:01:00,
2013-09-13 19:04:00,67.2,52.4,29.90,NW,314,6.0,11.0,59,0.00,,,0.00,Wunderground v.1.15,2013-09-13 23:04:00,
2013-09-13 19:06:00,67.0,52.2,29.90,NW,306,6.0,11.0,59,0.00,,,0.00,Wunderground v.1.15,2013-09-13 23:06:00,
2013-09-13 19:07:00,66.9,53.0,29.90,NW,311,6.0,11.0,61,0.00,,,0.00,Wunderground v.1.15,2013-09-13 23:07:00,
2013-09-13 19:08:00,66.8,52.5,29.90,NW,309,6.0,11.0,60,0.00,,,0.00,Wunderground v.1.15,2013-09-13 23:08:00,
2013-09-13 19:10:00,66.6,52.3,29.90,NW,326,6.0,7.0,60,0.00,,,0.00,Wunderground v.1.15,2013-09-13 23:10:00,
2013-09-13 19:11:00,66.6,52.3,29.90,NNW,336,5.0,10.0,60,0.00,,,0.00,Wunderground v.1.15,2013-09-13 23:11:00,
2013-09-13 19:12:00,66.5,52.6,29.90,NNE,17,5.0,10.0,61,0.00,,,0.00,Wunderground v.1.15,2013-09-13 23:12:00,
2013-09-13 19:17:00,66.6,52.3,29.91,North,360,3.0,10.0,60,0.00,,,0.00,Wunderground v.1.15,2013-09-13 23:17:00,
2013-09-13 19:18:00,66.6,51.8,29.91,West,269,3.0,10.0,59,0.00,,,0.00,Wunderground v.1.15,2013-09-13 23:18:00,
2013-09-13 19:21:00,66.8,52.5,29.91,WNW,296,2.0,10.0,60,0.00,,,0.00,Wunderground v.1.15,2013-09-13 23:21:00,
2013-09-13 19:22:00,66.8,52.0,29.91,WNW,286,2.0,10.0,59,0.00,,,0.00,Wunderground v.1.15,2013-09-13 23:22:00,
2013-09-13 19:24:00,66.8,52.5,29.91,WNW,286,1.0,10.0,60,0.00,,,0.00,Wunderground v.1.15,2013-09-13 23:24:00,
2013-09-13 19:26:00,66.8,52.5,29.91,WNW,286,1.0,10.0,60,0.00,,,0.00,Wunderground v.1.15,2013-09-13 23:26:00,
2013-09-13 19:28:00,66.7,52.4,29.91,NE,38,1.0,10.0,60,0.00,,,0.00,Wunderground v.1.15,2013-09-13 23:28:00,
2013-09-13 19:29:00,66.7,51.5,29.91,West,278,1.0,10.0,58,0.00,,,0.00,Wunderground v.1.15,2013-09-13 23:29:00,
2013-09-13 19:31:00,66.6,52.3,29.91,SSW,204,1.0,10.0,60,0.00,,,0.00,Wunderground v.1.15,2013-09-13 23:31:00,
2013-09-13 19:32:00,66.5,51.3,29.91,SSW,205,1.0,10.0,58,0.00,,,0.00,Wunderground v.1.15,2013-09-13 23:32:00,
2013-09-13 19:33:00,66.5,51.7,29.91,SSW,206,1.0,10.0,59,0.00,,,0.00,Wunderground v.1.15,2013-09-13 23:33:00,
2013-09-13 19:35:00,66.5,51.3,29.91,East,94,2.0,10.0,58,0.00,,,0.00,Wunderground v.1.15,2013-09-13 23:35:00,
2013-09-13 19:39:00,66.6,51.4,29.92,East,86,3.0,10.0,58,0.00,,,0.00,Wunderground v.1.15,2013-09-13 23:39:00,
2013-09-13 19:40:00,66.6,51.4,29.91,ENE,57,3.0,10.0,58,0.00,,,0.00,Wunderground v.1.15,2013-09-13 23:40:00,
2013-09-13 19:41:00,66.6,51.4,29.92,NE,49,4.0,10.0,58,0.00,,,0.00,Wunderground v.1.15,2013-09-13 23:41:00,
2013-09-13 19:42:00,66.6,51.8,29.92,North,5,4.0,10.0,59,0.00,,,0.00,Wunderground v.1.15,2013-09-13 23:42:00,
2013-09-13 19:43:00,66.5,51.7,29.92,NW,313,4.0,10.0,59,0.00,,,0.00,Wunderground v.1.15,2013-09-13 23:43:00,
2013-09-13 19:45:00,66.4,51.6,29.92,NNE,19,5.0,10.0,59,0.00,,,0.00,Wunderground v.1.15,2013-09-13 23:45:00,
2013-09-13 19:46:00,66.3,51.1,29.92,WNW,285,4.0,10.0,58,0.00,,,0.00,Wunderground v.1.15,2013-09-13 23:46:00,
2013-09-13 19:47:00,66.3,51.5,29.92,WNW,285,4.0,10.0,59,0.00,,,0.00,Wunderground v.1.15,2013-09-13 23:47:00,
2013-09-13 19:48:00,66.3,51.5,29.92,NW,320,4.0,10.0,59,0.00,,,0.00,Wunderground v.1.15,2013-09-13 23:48:00,
2013-09-13 19:50:00,66.2,51.0,29.92,NNE,30,3.0,10.0,58,0.00,,,0.00,Wunderground v.1.15,2013-09-13 23:50:00,
2013-09-13 19:53:00,66.2,51.4,29.92,ENE,63,3.0,10.0,59,0.00,,,0.00,Wunderground v.1.15,2013-09-13 23:53:00,
2013-09-13 19:55:00,66.2,51.0,29.92,North,355,3.0,10.0,58,0.00,,,0.00,Wunderground v.1.15,2013-09-13 23:55:00,
2013-09-13 19:56:00,66.1,50.9,29.92,NNE,28,3.0,10.0,58,0.00,,,0.00,Wunderground v.1.15,2013-09-13 23:56:00,
2013-09-13 19:57:00,66.1,51.4,29.92,NNE,19,4.0,10.0,59,0.00,,,0.00,Wunderground v.1.15,2013-09-13 23:57:00,
2013-09-13 19:58:00,66.1,51.4,29.92,NE,40,4.0,10.0,59,0.00,,,0.00,Wunderground v.1.15,2013-09-13 23:58:00,
2013-09-13 20:00:00,66.1,51.8,29.92,NNE,19,5.0,10.0,60,0.00,,,0.00,Wunderground v.1.15,2013-09-14 00:00:00,
2013-09-13 20:02:00,66.0,50.8,29.92,North,355,5.0,10.0,58,0.00,,,0.00,Wunderground v.1.15,2013-09-14 00:02:00,
2013-09-13 20:03:00,66.0,51.7,29.92,NNW,330,5.0,10.0,60,0.00,,,0.00,Wunderground v.1.15,2013-09-14 00:03:00,
2013-09-13 20:05:00,65.7,52.3,29.92,East,82,5.0,10.0,62,0.00,,,0.00,Wunderground v.1.15,2013-09-14 00:05:00,
2013-09-13 20:06:00,65.6,50.9,29.92,NNE,21,4.0,10.0,59,0.00,,,0.00,Wunderground v.1.15,2013-09-14 00:06:00,
2013-09-13 20:08:00,65.4,51.6,29.92,NNW,342,4.0,10.0,61,0.00,,,0.00,Wunderground v.1.15,2013-09-14 00:08:00,
2013-09-13 20:11:00,65.4,51.1,29.92,North,355,5.0,10.0,60,0.00,,,0.00,Wunderground v.1.15,2013-09-14 00:11:00,
2013-09-13 20:13:00,65.4,51.1,29.92,NNW,346,5.0,10.0,60,0.00,,,0.00,Wunderground v.1.15,2013-09-14 00:13:00,
2013-09-13 20:15:00,65.3,50.6,29.92,NNW,333,5.0,10.0,59,0.00,,,0.00,Wunderground v.1.15,2013-09-14 00:15:00,
2013-09-13 20:16:00,65.3,51.1,29.92,NW,314,5.0,10.0,60,0.00,,,0.00,Wunderground v.1.15,2013-09-14 00:16:00,
2013-09-13 20:20:00,65.1,51.3,29.92,North,355,5.0,5.0,61,0.00,,,0.00,Wunderground v.1.15,2013-09-14 00:20:00,
2013-09-13 20:23:00,64.9,51.1,29.92,NNW,338,5.0,10.0,61,0.00,,,0.00,Wunderground v.1.15,2013-09-14 00:23:00,
2013-09-13 20:24:00,64.8,51.0,29.93,NNW,342,5.0,10.0,61,0.00,,,0.00,Wunderground v.1.15,2013-09-14 00:24:00,
2013-09-13 20:26:00,64.8,51.0,29.93,NNW,327,5.0,10.0,61,0.00,,,0.00,Wunderground v.1.15,2013-09-14 00:26:00,
2013-09-13 20:29:00,64.8,50.6,29.93,NNW,331,5.0,10.0,60,0.00,,,0.00,Wunderground v.1.15,2013-09-14 00:29:00,
2013-09-13 20:30:00,64.8,51.0,29.93,NNW,344,5.0,5.0,61,0.00,,,0.00,Wunderground v.1.15,2013-09-14 00:30:00,
2013-09-13 20:31:00,64.8,51.0,29.93,NNW,344,5.0,7.0,61,0.00,,,0.00,Wunderground v.1.15,2013-09-14 00:31:00,
2013-09-13 20:32:00,64.8,50.6,29.93,NW,314,6.0,8.0,60,0.00,,,0.00,Wunderground v.1.15,2013-09-14 00:32:00,
2013-09-13 20:33:00,64.8,50.6,29.93,NNW,338,6.0,10.0,60,0.00,,,0.00,Wunderground v.1.15,2013-09-14 00:33:00,
2013-09-13 20:37:00,64.7,50.9,29.93,NNW,340,5.0,10.0,61,0.00,,,0.00,Wunderground v.1.15,2013-09-14 00:37:00,
2013-09-13 20:38:00,64.6,51.3,29.93,NW,309,4.0,10.0,62,0.00,,,0.00,Wunderground v.1.15,2013-09-14 00:38:00,
2013-09-13 20:42:00,64.2,50.9,29.93,NNE,22,4.0,10.0,62,0.00,,,0.00,Wunderground v.1.15,2013-09-14 00:42:00,
2013-09-13 20:44:00,64.2,51.3,29.93,NE,51,4.0,10.0,63,0.00,,,0.00,Wunderground v.1.15,2013-09-14 00:44:00,
2013-09-13 20:45:00,64.1,50.8,29.93,North,5,4.0,10.0,62,0.00,,,0.00,Wunderground v.1.15,2013-09-14 00:45:00,
2013-09-13 20:46:00,64.2,50.9,29.94,North,360,4.0,10.0,62,0.00,,,0.00,Wunderground v.1.15,2013-09-14 00:46:00,
2013-09-13 20:47:00,64.2,50.9,29.93,NNE,20,5.0,10.0,62,0.00,,,0.00,Wunderground v.1.15,2013-09-14 00:47:00,
2013-09-13 20:48:00,64.3,51.0,29.94,NNW,339,5.0,10.0,62,0.00,,,0.00,Wunderground v.1.15,2013-09-14 00:48:00,
2013-09-13 20:49:00,64.3,51.0,29.94,North,351,5.0,10.0,62,0.00,,,0.00,Wunderground v.1.15,2013-09-14 00:49:00,
2013-09-13 20:53:00,64.5,50.7,29.94,NW,306,6.0,10.0,61,0.00,,,0.00,Wunderground v.1.15,2013-09-14 00:53:00,
2013-09-13 20:54:00,64.5,51.2,29.94,NE,49,7.0,10.0,62,0.00,,,0.00,Wunderground v.1.15,2013-09-14 00:54:00,
2013-09-13 20:55:00,64.4,50.7,29.94,NNE,19,7.0,10.0,61,0.00,,,0.00,Wunderground v.1.15,2013-09-14 00:55:00,
2013-09-13 20:56:00,64.4,50.7,29.94,WNW,303,7.0,10.0,61,0.00,,,0.00,Wunderground v.1.15,2013-09-14 00:56:00,
2013-09-13 20:58:00,64.3,50.6,29.94,NW,310,7.0,10.0,61,0.00,,,0.00,Wunderground v.1.15,2013-09-14 00:58:00,
2013-09-13 21:01:00,64.1,50.8,29.94,ENE,59,7.0,10.0,62,0.00,,,0.00,Wunderground v.1.15,2013-09-14 01:01:00,
2013-09-13 21:02:00,64.1,50.8,29.94,North,355,7.0,10.0,62,0.00,,,0.00,Wunderground v.1.15,2013-09-14 01:02:00,
2013-09-13 21:03:00,64.1,50.4,29.94,NNW,333,7.0,10.0,61,0.00,,,0.00,Wunderground v.1.15,2013-09-14 01:03:00,
2013-09-13 21:07:00,64.0,50.3,29.94,NNW,333,7.0,11.0,61,0.00,,,0.00,Wunderground v.1.15,2013-09-14 01:07:00,
2013-09-13 21:08:00,64.0,50.7,29.95,NW,322,7.0,11.0,62,0.00,,,0.00,Wunderground v.1.15,2013-09-14 01:08:00,
2013-09-13 21:09:00,64.0,50.7,29.95,NW,323,7.0,11.0,62,0.00,,,0.00,Wunderground v.1.15,2013-09-14 01:09:00,
2013-09-13 21:12:00,63.8,51.0,29.95,NNW,340,6.0,10.0,63,0.00,,,0.00,Wunderground v.1.15,2013-09-14 01:12:00,
2013-09-13 21:14:00,63.6,51.2,29.95,WNW,297,5.0,10.0,64,0.00,,,0.00,Wunderground v.1.15,2013-09-14 01:14:00,
2013-09-13 21:15:00,63.5,50.7,29.95,NNW,335,4.0,10.0,63,0.00,,,0.00,Wunderground v.1.15,2013-09-14 01:15:00,
2013-09-13 21:16:00,63.4,50.6,29.95,NNW,327,4.0,10.0,63,0.00,,,0.00,Wunderground v.1.15,2013-09-14 01:16:00,
2013-09-13 21:17:00,63.4,50.6,29.95,NW,310,4.0,10.0,63,0.00,,,0.00,Wunderground v.1.15,2013-09-14 01:17:00,
2013-09-13 21:21:00,63.6,50.3,29.95,NW,317,4.0,10.0,62,0.00,,,0.00,Wunderground v.1.15,2013-09-14 01:21:00,
2013-09-13 21:22:00,63.6,50.8,29.95,NE,39,4.0,10.0,63,0.00,,,0.00,Wunderground v.1.15,2013-09-14 01:22:00,
2013-09-13 21:23:00,63.6,50.8,29.95,WNW,298,4.0,10.0,63,0.00,,,0.00,Wunderground v.1.15,2013-09-14 01:23:00,
2013-09-13 21:24:00,63.6,50.8,29.95,NNW,348,4.0,10.0,63,0.00,,,0.00,Wunderground v.1.15,2013-09-14 01:24:00,
2013-09-13 21:28:00,63.5,50.7,29.95,NNW,340,5.0,10.0,63,0.00,,,0.00,Wunderground v.1.15,2013-09-14 01:28:00,
2013-09-13 21:29:00,63.5,50.7,29.95,NW,314,5.0,10.0,63,0.00,,,0.00,Wunderground v.1.15,2013-09-14 01:29:00,
2013-09-13 21:30:00,63.5,50.7,29.95,NW,321,5.0,10.0,63,0.00,,,0.00,Wunderground v.1.15,2013-09-14 01:30:00,
2013-09-13 21:33:00,63.3,50.9,29.96,WNW,284,4.0,10.0,64,0.00,,,0.00,Wunderground v.1.15,2013-09-14 01:33:00,
2013-09-13 21:35:00,63.3,50.1,29.95,WNW,295,4.0,10.0,62,0.00,,,0.00,Wunderground v.1.15,2013-09-14 01:35:00,
2013-09-13 21:36:00,63.3,50.5,29.96,NW,308,5.0,10.0,63,0.00,,,0.00,Wunderground v.1.15,2013-09-14 01:36:00,
2013-09-13 21:38:00,63.3,50.5,29.95,West,273,4.0,10.0,63,0.00,,,0.00,Wunderground v.1.15,2013-09-14 01:38:00,
2013-09-13 21:39:00,63.3,50.9,29.95,NNW,329,4.0,10.0,64,0.00,,,0.00,Wunderground v.1.15,2013-09-14 01:39:00,
2013-09-13 21:40:00,63.2,50.4,29.96,NW,318,4.0,4.0,63,0.00,,,0.00,Wunderground v.1.15,2013-09-14 01:40:00,
2013-09-13 21:41:00,63.2,50.4,29.95,NNW,344,4.0,5.0,63,0.00,,,0.00,Wunderground v.1.15,2013-09-14 01:41:00,
2013-09-13 21:46:00,62.9,51.0,29.96,NNW,329,3.0,10.0,65,0.00,,,0.00,Wunderground v.1.15,2013-09-14 01:46:00,
2013-09-13 21:47:00,62.8,50.4,29.95,NNW,328,3.0,10.0,64,0.00,,,0.00,Wunderground v.1.15,2013-09-14 01:47:00,
2013-09-13 21:49:00,62.6,50.2,29.96,NNW,348,3.0,10.0,64,0.00,,,0.00,Wunderground v.1.15,2013-09-14 01:49:00,
2013-09-13 21:51:00,62.6,49.8,29.96,North,355,2.0,10.0,63,0.00,,,0.00,Wunderground v.1.15,2013-09-14 01:51:00,
2013-09-13 21:52:00,62.6,50.2,29.96,WNW,287,2.0,10.0,64,0.00,,,0.00,Wunderground v.1.15,2013-09-14 01:52:00,
2013-09-13 21:54:00,62.4,50.5,29.96,NNW,337,2.0,10.0,65,0.00,,,0.00,Wunderground v.1.15,2013-09-14 01:54:00,
2013-09-13 21:55:00,62.3,50.8,29.96,NW,317,3.0,10.0,66,0.00,,,0.00,Wunderground v.1.15,2013-09-14 01:55:00,
2013-09-13 21:56:00,62.2,50.7,29.96,NNW,343,3.0,10.0,66,0.00,,,0.00,Wunderground v.1.15,2013-09-14 01:56:00,
2013-09-13 21:58:00,62.1,50.2,29.96,NNW,341,4.0,10.0,65,0.00,,,0.00,Wunderground v.1.15,2013-09-14 01:58:00,
2013-09-13 22:00:00,62.2,49.9,29.96,West,281,3.0,3.0,64,0.00,,,0.00,Wunderground v.1.15,2013-09-14 02:00:00,
2013-09-13 22:01:00,62.1,50.6,29.96,NNW,342,4.0,5.0,66,0.00,,,0.00,Wunderground v.1.15,2013-09-14 02:01:00,
2013-09-13 22:02:00,62.1,49.8,29.96,ENE,58,4.0,8.0,64,0.00,,,0.00,Wunderground v.1.15,2013-09-14 02:02:00,
2013-09-13 22:06:00,62.5,49.7,29.96,ENE,71,6.0,10.0,63,0.00,,,0.00,Wunderground v.1.15,2013-09-14 02:06:00,
2013-09-13 22:10:00,62.6,49.4,29.96,NNE,28,7.0,10.0,62,0.00,,,0.00,Wunderground v.1.15,2013-09-14 02:10:00,
2013-09-13 22:12:00,62.6,49.8,29.96,NNE,13,7.0,10.0,63,0.00,,,0.00,Wunderground v.1.15,2013-09-14 02:12:00,
2013-09-13 22:14:00,62.5,49.7,29.96,North,350,6.0,10.0,63,0.00,,,0.00,Wunderground v.1.15,2013-09-14 02:14:00,
2013-09-13 22:15:00,62.5,49.3,29.96,NW,306,6.0,10.0,62,0.00,,,0.00,Wunderground v.1.15,2013-09-14 02:15:00,
2013-09-13 22:17:00,62.4,50.1,29.96,WNW,299,5.0,10.0,64,0.00,,,0.00,Wunderground v.1.15,2013-09-14 02:17:00,
2013-09-13 22:20:00,62.2,49.9,29.96,NW,313,4.0,4.0,64,0.00,,,0.00,Wunderground v.1.15,2013-09-14 02:20:00,
2013-09-13 22:22:00,62.0,49.7,29.96,West,274,3.0,10.0,64,0.00,,,0.00,Wunderground v.1.15,2013-09-14 02:22:00,
2013-09-13 22:26:00,61.7,49.4,29.96,NW,307,2.0,10.0,64,0.00,,,0.00,Wunderground v.1.15,2013-09-14 02:26:00,
2013-09-13 22:28:00,61.7,49.0,29.96,NE,43,3.0,10.0,63,0.00,,,0.00,Wunderground v.1.15,2013-09-14 02:28:00,
2013-09-13 22:29:00,61.8,49.1,29.96,North,11,3.0,10.0,63,0.00,,,0.00,Wunderground v.1.15,2013-09-14 02:29:00,
2013-09-13 22:30:00,62.0,48.8,29.96,North,350,4.0,4.0,62,0.00,,,0.00,Wunderground v.1.15,2013-09-14 02:30:00,
2013-09-13 22:31:00,62.1,49.4,29.96,North,5,4.0,5.0,63,0.00,,,0.00,Wunderground v.1.15,2013-09-14 02:31:00,
2013-09-13 22:35:00,62.2,49.4,29.96,NW,325,5.0,10.0,63,0.00,,,0.00,Wunderground v.1.15,2013-09-14 02:35:00,
2013-09-13 22:36:00,62.1,49.4,29.96,NW,317,5.0,10.0,63,0.00,,,0.00,Wunderground v.1.15,2013-09-14 02:36:00,
2013-09-13 22:38:00,62.0,49.3,29.97,NW,307,4.0,10.0,63,0.00,,,0.00,Wunderground v.1.15,2013-09-14 02:38:00,
2013-09-13 22:40:00,61.9,49.6,29.97,NW,314,3.0,3.0,64,0.00,,,0.00,Wunderground v.1.15,2013-09-14 02:40:00,
2013-09-13 22:41:00,61.8,49.5,29.97,West,281,3.0,10.0,64,0.00,,,0.00,Wunderground v.1.15,2013-09-14 02:41:00,
2013-09-13 22:43:00,61.7,49.4,29.97,West,281,2.0,10.0,64,0.00,,,0.00,Wunderground v.1.15,2013-09-14 02:43:00,
2013-09-13 22:47:00,61.5,50.0,29.97,North,5,2.0,10.0,66,0.00,,,0.00,Wunderground v.1.15,2013-09-14 02:47:00,
2013-09-13 22:51:00,61.4,49.9,29.97,NE,52,2.0,10.0,66,0.00,,,0.00,Wunderground v.1.15,2013-09-14 02:51:00,
2013-09-13 22:52:00,61.3,49.4,29.97,NE,52,1.0,10.0,65,0.00,,,0.00,Wunderground v.1.15,2013-09-14 02:52:00,
2013-09-13 22:54:00,61.3,49.4,29.97,WNW,302,1.0,10.0,65,0.00,,,0.00,Wunderground v.1.15,2013-09-14 02:54:00,
2013-09-13 22:56:00,61.3,49.4,29.97,North,349,1.0,10.0,65,0.00,,,0.00,Wunderground v.1.15,2013-09-14 02:56:00,
2013-09-13 22:59:00,61.2,49.3,29.97,NW,311,1.0,10.0,65,0.00,,,0.00,Wunderground v.1.15,2013-09-14 02:59:00,
2013-09-13 23:01:00,61.1,49.7,29.97,NW,315,2.0,2.0,66,0.00,,,0.00,Wunderground v.1.15,2013-09-14 03:01:00,
2013-09-13 23:02:00,61.0,49.6,29.97,NW,315,2.0,2.0,66,0.00,,,0.00,Wunderground v.1.15,2013-09-14 03:02:00,
2013-09-13 23:03:00,61.0,49.6,29.97,NW,315,2.0,2.0,66,0.00,,,0.00,Wunderground v.1.15,2013-09-14 03:03:00,
2013-09-13 23:05:00,60.9,49.5,29.97,NW,315,2.0,2.0,66,0.00,,,0.00,Wunderground v.1.15,2013-09-14 03:05:00,
2013-09-13 23:07:00,60.8,49.8,29.97,NW,315,1.0,2.0,67,0.00,,,0.00,Wunderground v.1.15,2013-09-14 03:07:00,
2013-09-13 23:12:00,60.5,49.5,29.97,North,355,1.0,2.0,67,0.00,,,0.00,Wunderground v.1.15,2013-09-14 03:12:00,
2013-09-13 23:13:00,60.5,49.5,29.97,NNE,17,1.0,2.0,67,0.00,,,0.00,Wunderground v.1.15,2013-09-14 03:13:00,
2013-09-13 23:14:00,60.5,49.5,29.97,NNE,17,1.0,2.0,67,0.00,,,0.00,Wunderground v.1.15,2013-09-14 03:14:00,
2013-09-13 23:16:00,60.4,49.4,29.97,NNW,348,1.0,2.0,67,0.00,,,0.00,Wunderground v.1.15,2013-09-14 03:16:00,
2013-09-13 23:18:00,60.4,49.8,29.97,NNW,342,2.0,5.0,68,0.00,,,0.00,Wunderground v.1.15,2013-09-14 03:18:00,
2013-09-13 23:19:00,60.4,49.4,29.97,North,5,2.0,5.0,67,0.00,,,0.00,Wunderground v.1.15,2013-09-14 03:19:00,
2013-09-13 23:20:00,60.4,49.8,29.97,NNW,327,2.0,2.0,68,0.00,,,0.00,Wunderground v.1.15,2013-09-14 03:20:00,
2013-09-13 23:22:00,60.4,49.8,29.97,NNW,334,3.0,5.0,68,0.00,,,0.00,Wunderground v.1.15,2013-09-14 03:22:00,
2013-09-13 23:23:00,60.4,49.8,29.97,NNW,334,3.0,5.0,68,0.00,,,0.00,Wunderground v.1.15,2013-09-14 03:23:00,
2013-09-13 23:26:00,60.3,49.7,29.97,North,5,2.0,5.0,68,0.00,,,0.00,Wunderground v.1.15,2013-09-14 03:26:00,
2013-09-13 23:28:00,60.3,49.7,29.98,NNE,30,2.0,5.0,68,0.00,,,0.00,Wunderground v.1.15,2013-09-14 03:28:00,
2013-09-13 23:31:00,60.3,49.7,29.98,NNW,336,2.0,2.0,68,0.00,,,0.00,Wunderground v.1.15,2013-09-14 03:31:00,
2013-09-13 23:32:00,60.3,50.1,29.98,North,355,2.0,2.0,69,0.00,,,0.00,Wunderground v.1.15,2013-09-14 03:32:00,
2013-09-13 23:33:00,60.3,50.1,29.98,North,355,2.0,2.0,69,0.00,,,0.00,Wunderground v.1.15,2013-09-14 03:33:00,
2013-09-13 23:34:00,60.3,50.1,29.98,North,5,2.0,3.0,69,0.00,,,0.00,Wunderground v.1.15,2013-09-14 03:34:00,
2013-09-13 23:39:00,60.2,50.0,29.98,North,360,2.0,4.0,69,0.00,,,0.00,Wunderground v.1.15,2013-09-14 03:39:00,
2013-09-13 23:40:00,60.2,49.6,29.98,North,360,2.0,2.0,68,0.00,,,0.00,Wunderground v.1.15,2013-09-14 03:40:00,
2013-09-13 23:41:00,60.2,49.6,29.98,North,360,2.0,2.0,68,0.00,,,0.00,Wunderground v.1.15,2013-09-14 03:41:00,
2013-09-13 23:45:00,60.0,50.2,29.98,NW,316,2.0,2.0,70,0.00,,,0.00,Wunderground v.1.15,2013-09-14 03:45:00,
2013-09-13 23:47:00,59.8,50.4,29.98,NW,316,1.0,2.0,71,0.00,,,0.00,Wunderground v.1.15,2013-09-14 03:47:00,
2013-09-13 23:51:00,59.5,50.1,29.98,NW,316,0.0,1.0,71,0.00,,,0.00,Wunderground v.1.15,2013-09-14 03:51:00,
2013-09-13 23:52:00,59.4,50.4,29.98,NW,316,0.0,1.0,72,0.00,,,0.00,Wunderground v.1.15,2013-09-14 03:52:00,
2013-09-13 23:53:00,59.4,50.0,29.98,NW,316,0.0,1.0,71,0.00,,,0.00,Wunderground v.1.15,2013-09-14 03:53:00,
2013-09-13 23:55:00,59.4,50.0,29.98,NNW,327,0.0,1.0,71,0.00,,,0.00,Wunderground v.1.15,2013-09-14 03:55:00,
2013-09-13 23:57:00,59.3,49.9,29.98,NNW,329,0.0,2.0,71,0.00,,,0.00,Wunderground v.1.15,2013-09-14 03:57:00,
2013-09-13 23:59:00,59.3,49.9,29.98,NNW,329,1.0,2.0,71,0.00,,,0.00,Wunderground v.1.15,2013-09-14 03:59:00,